EW1379 Weather Reports


Display with metric or nautical units.
time (UTC)temp
F
wind
direction
speed
MPH
gust
MPH
rain 1hr
in
rain 24hr
in
rain mn
in
humidity
%
barometer
mb
20260502220041 42 270 2.0 6.0 0.00 0.03 0.01 78 1013.9
20260502215543 42 271 3.0 9.0 0.00 0.05 0.01 77 1013.9
20260502215045 43 266 4.0 9.0 0.00 0.05 0.01 77 1013.9
20260502214542 43 295 1.0 4.0 0.00 0.05 0.01 77 1013.8
20260502214046 43 323 1.0 7.0 0.00 0.05 0.01 75 1013.8
20260502213533 43 343 2.0 9.0 0.00 0.05 0.01 74 1013.7
20260502213024 43 298 4.0 8.0 0.00 0.05 0.01 73 1013.8
20260502212554 43 343 3.0 5.0 0.00 0.05 0.01 73 1013.6
20260502212025 43 346 2.0 5.0 0.00 0.05 0.01 73 1013.6
20260502211551 43 345 1.0 5.0 0.00 0.05 0.01 73 1013.5
20260502211039 43 333 2.0 5.0 0.00 0.05 0.01 74 1013.5
20260502210532 43 340 1.0 5.0 0.00 0.05 0.01 75 1013.5
20260502210028 43 343 3.0 5.0 0.00 0.05 0.01 73 1013.5
20260502205556 43 332 1.0 5.0 0.00 0.05 0.01 73 1013.5
20260502205046 43 294 3.0 7.0 0.00 0.05 0.01 72 1013.7
20260502204540 43 343 4.0 11.0 0.00 0.05 0.01 71 1013.6
20260502204030 43 325 6.0 11.0 0.00 0.05 0.01 71 1013.6
20260502203532 43 327 0.0 7.0 0.00 0.05 0.01 72 1013.6
20260502203043 43 341 2.0 8.0 0.00 0.05 0.01 71 1013.6
20260502202546 44 336 6.0 9.0 0.00 0.05 0.01 71 1013.5
20260502202028 44 310 4.0 10.0 0.00 0.05 0.01 70 1013.6
20260502201607 44 355 7.0 10.0 0.00 0.05 0.01 70 1013.6
20260502201025 44 337 3.0 10.0 0.00 0.05 0.01 70 1013.7
20260502200548 44 332 4.0 10.0 0.00 0.05 0.01 70 1013.7
20260502200034 44 329 4.0 8.0 0.00 0.05 0.01 72 1013.7
20260502195526 44 303 3.0 8.0 0.00 0.07 0.01 72 1013.7
20260502195032 44 347 6.0 11.0 0.00 0.07 0.01 71 1013.8
20260502194522 44 321 7.0 13.0 0.00 0.07 0.01 72 1013.7
20260502194043 44 340 10.0 13.0 0.00 0.07 0.01 72 1013.7
20260502193534 45 322 9.0 11.0 0.00 0.07 0.01 72 1013.8
20260502193040 45 350 7.0 12.0 0.00 0.07 0.01 72 1013.8
20260502192546 45 342 7.0 12.0 0.00 0.07 0.01 71 1013.8
20260502192032 45 347 7.0 11.0 0.00 0.07 0.01 71 1013.8
20260502191541 45 330 5.0 12.0 0.00 0.07 0.01 72 1013.9
20260502191033 45 351 7.0 12.0 0.00 0.07 0.01 71 1013.8
20260502190539 45 355 7.0 12.0 0.00 0.07 0.01 70 1013.8
20260502190034 45 342 9.0 14.0 0.00 0.07 0.01 69 1013.9
20260502185553 46 336 10.0 14.0 0.00 0.07 0.01 69 1013.8
20260502185029 46 348 7.0 11.0 0.00 0.07 0.01 68 1013.8
20260502184555 46 322 8.0 10.0 0.00 0.07 0.01 67 1013.7
20260502184043 45 346 8.0 10.0 0.00 0.07 0.01 68 1013.7
20260502183542 46 346 7.0 9.0 0.00 0.07 0.01 68 1013.7
20260502183030 46 341 5.0 11.0 0.00 0.07 0.01 67 1013.7
20260502182547 46 5 6.0 11.0 0.00 0.07 0.01 66 1013.7
20260502182034 47 341 8.0 12.0 0.00 0.07 0.01 65 1013.6
20260502181548 47 344 6.0 12.0 0.00 0.07 0.01 58 1013.5
20260502181020 48 333 4.0 10.0 0.00 0.07 0.01 57 1013.4
20260502180545 48 335 6.0 10.0 0.00 0.07 0.01 58 1013.4
20260502164045 47 298 6.0 14.0 0.00 0.07 0.01 54 1013.5
20260502163532 46 288 6.0 12.0 0.00 0.07 0.01 54 1013.5
20260502163029 46 271 7.0 15.0 0.00 0.07 0.01 55 1013.5
20260502162604 46 296 8.0 15.0 0.00 0.07 0.01 54 1013.5
20260502162048 46 299 4.0 8.0 0.00 0.07 0.01 59 1013.7
20260502161548 46 244 4.0 14.0 0.00 0.07 0.01 58 1013.6
20260502161038 47 306 6.0 14.0 0.00 0.07 0.01 56 1013.5
20260502160604 47 239 2.0 12.0 0.00 0.07 0.01 57 1013.5
20260502152052 47 273 6.0 16.0 0.00 0.07 0.01 59 1013.8
20260502151540 46 226 4.0 10.0 0.00 0.07 0.01 63 1013.8
20260502151032 46 237 4.0 12.0 0.00 0.07 0.01 60 1013.9
20260502150603 46 270 6.0 12.0 0.00 0.07 0.01 62 1013.9
20260502130554 43 323 5.0 10.0 0.00 0.07 0.01 74 1014.7
20260502123536 41 259 5.0 10.0 0.00 0.07 0.01 79 1014.9
20260502123056 41 270 3.0 8.0 0.00 0.07 0.01 80 1014.8
20260502122532 41 265 3.0 13.0 0.00 0.07 0.01 81 1014.8
20260502121550 40 275 6.0 15.0 0.00 0.07 0.01 82 1014.8
20260502121028 40 244 5.0 11.0 0.00 0.07 0.01 82 1014.8
20260502120550 40 255 4.0 9.0 0.00 0.07 0.01 83 1014.8
20260502115549 40 252 4.0 8.0 0.00 0.07 0.01 84 1014.7
20260502115111 39 286 4.0 8.0 0.00 0.07 0.01 85 1014.8
20260502114044 39 276 1.0 8.0 0.00 0.07 0.01 86 1014.8
20260502113600 38 237 4.0 8.0 0.00 0.07 0.01 86 1014.7
20260502113033 38 244 3.0 8.0 0.00 0.07 0.01 87 1014.7
20260502112525 38 269 0.0 4.0 0.00 0.07 0.01 87 1014.7
20260502112040 38 213 2.0 5.0 0.00 0.07 0.01 87 1014.7
20260502111632 38 253 2.0 6.0 0.00 0.07 0.01 88 1014.6
20260502111029 38 261 2.0 6.0 0.01 0.07 0.01 88 1014.6
20260502110530 37 229 0.0 4.0 0.01 0.07 0.01 88 1014.6
20260502110032 37 244 0.0 4.0 0.01 0.07 0.01 88 1014.6
20260502105616 37 261 2.0 6.0 0.01 0.07 0.01 88 1014.5
20260502105036 37 254 2.0 6.0 0.01 0.07 0.01 88 1014.4
20260502104535 37 262 2.0 5.0 0.01 0.07 0.01 88 1014.4
20260502104043 36 273 2.0 6.0 0.01 0.07 0.01 88 1014.3
20260502103542 36 248 0.0 5.0 0.01 0.07 0.01 88 1014.2
20260502103030 36 261 1.0 5.0 0.01 0.07 0.01 88 1014.2
20260502102527 37 271 1.0 4.0 0.01 0.07 0.01 87 1014.2
20260502102051 37 265 1.0 5.0 0.01 0.07 0.01 87 1014.0
20260502101527 37 197 2.0 5.0 0.01 0.07 0.01 87 1014.1
20260502101037 37 271 1.0 5.0 0.00 0.06 0.00 87 1014.1
20260502100528 37 261 1.0 4.0 0.00 0.06 0.00 87 1014.1
20260502091533 38 263 2.0 5.0 0.00 0.06 0.00 87 1013.6
20260502091058 38 267 2.0 6.0 0.00 0.06 0.00 87 1013.6
20260502090606 38 261 3.0 6.0 0.00 0.06 0.00 87 1013.4
20260502071534 41 217 1.0 3.0 0.00 0.06 0.00 91 1012.5
20260502071040 41 236 0.0 0.0 0.00 0.06 0.00 92 1012.5
20260502070532 41 236 0.0 0.0 0.00 0.06 0.00 92 1012.5
20260502070036 41 236 0.0 0.0 0.00 0.06 0.00 92 1012.5
20260502065543 41 236 0.0 0.0 0.00 0.06 0.00 92 1012.5
20260502065027 41 236 0.0 2.0 0.00 0.06 0.00 92 1012.6
20260502064531 41 236 0.0 4.0 0.00 0.06 0.00 92 1012.6
20260502064054 41 232 0.0 0.0 0.00 0.06 0.00 92 1012.7
20260502063030 41 232 0.0 2.0 0.00 0.06 0.00 92 1012.6
20260502062530 41 238 0.0 0.0 0.00 0.06 0.00 92 1012.6
20260502062037 41 238 0.0 0.0 0.00 0.06 0.00 92 1012.8
20260502061028 41 238 0.0 0.0 0.00 0.06 0.00 92 1012.6
20260502060531 41 238 0.0 0.0 0.00 0.06 0.00 92 1012.6
20260502060055 41 121 0.0 0.0 0.00 0.06 0.00 92 1012.7
20260502055618 41 121 0.0 0.0 0.00 0.06 0.00 92 1012.8
20260502055047 41 121 0.0 0.0 0.00 0.06 0.00 92 1012.8
20260502054552 41 121 0.0 0.0 0.00 0.06 0.00 92 1012.9
20260502054039 41 121 0.0 0.0 0.00 0.06 0.00 92 1012.9
20260502053533 41 121 0.0 0.0 0.00 0.06 0.00 92 1012.8
20260502053028 41 121 0.0 0.0 0.00 0.06 0.00 92 1012.8
20260502052620 41 121 0.0 0.0 0.00 0.06 0.00 92 1012.8
20260502052040 41 121 0.0 0.0 0.00 0.06 0.00 92 1012.7
20260502051548 41 121 0.0 0.0 0.00 0.06 0.00 92 1012.8
20260502051027 41 121 0.0 0.0 0.00 0.06 0.00 92 1012.9
20260502050555 41 121 0.0 0.0 0.00 0.06 0.00 92 1012.9
20260502050035 41 121 0.0 0.0 0.00 0.06 0.00 92 1012.9
20260502045648 41 121 0.0 0.0 0.00 0.06 0.00 92 1012.9
20260502044539 41 121 0.0 0.0 0.00 0.06 0.00 92 1012.8
20260502044025 41 121 0.0 0.0 0.00 0.06 0.00 92 1012.7
20260502043604 41 121 0.0 0.0 0.00 0.06 0.00 92 1012.8
20260502043100 41 121 0.0 0.0 0.00 0.06 0.00 92 1012.8
20260502042547 41 121 0.0 0.0 0.00 0.06 0.00 92 1012.7
20260502042053 41 121 0.0 0.0 0.00 0.06 0.00 91 1012.7
20260502041600 41 121 0.0 0.0 0.00 0.06 0.00 91 1012.8
20260502041047 41 121 0.0 0.0 0.00 0.06 0.00 91 1012.8
20260502040656 41 121 0.0 0.0 0.00 0.06 0.00 91 1012.8
20260502040112 41 121 0.0 0.0 0.00 0.06 0.00 91 1012.8
20260502035547 41 121 0.0 0.0 0.00 0.06 0.06 91 1012.8
20260502035046 41 121 0.0 0.0 0.00 0.06 0.06 91 1012.8
20260502034626 41 121 0.0 0.0 0.00 0.06 0.06 91 1012.8
20260502034543 41 121 0.0 0.0 0.00 0.06 0.06 91 1012.8
20260502034105 41 121 0.0 0.0 0.00 0.06 0.06 91 1012.7
20260502033536 41 121 0.0 0.0 0.00 0.06 0.06 91 1012.7
20260502033055 41 121 0.0 0.0 0.00 0.06 0.06 91 1012.7
20260502032552 41 121 0.0 0.0 0.00 0.06 0.06 91 1012.7
20260502031714 41 121 0.0 0.0 0.00 0.06 0.06 91 1012.7
20260502031121 41 121 0.0 0.0 0.00 0.06 0.06 91 1012.7
20260502031035 41 121 0.0 0.0 0.00 0.06 0.06 91 1012.7
20260502030551 41 121 0.0 0.0 0.00 0.06 0.06 91 1012.7
20260502030123 41 121 0.0 0.0 0.00 0.06 0.06 91 1012.7
20260502025532 41 121 0.0 0.0 0.00 0.06 0.06 91 1012.7
20260502025049 41 121 0.0 0.0 0.00 0.06 0.06 91 1012.8
20260502024640 41 121 0.0 0.0 0.00 0.06 0.06 91 1012.8
20260502024027 41 121 0.0 0.0 0.00 0.06 0.06 91 1012.8
20260502023658 42 121 0.0 0.0 0.00 0.06 0.06 91 1012.8
20260502023032 42 121 0.0 0.0 0.00 0.06 0.06 91 1012.9
20260502022553 42 121 0.0 0.0 0.00 0.06 0.06 91 1012.9
20260502022049 42 121 0.0 0.0 0.00 0.06 0.06 91 1012.9
20260502021538 42 121 0.0 0.0 0.00 0.06 0.06 91 1012.8
20260502021057 42 121 0.0 0.0 0.00 0.06 0.06 91 1012.8
20260502020534 42 121 0.0 0.0 0.00 0.06 0.06 91 1012.8
20260502020025 42 121 0.0 0.0 0.00 0.06 0.06 91 1012.8
20260502015552 42 121 0.0 0.0 0.00 0.06 0.06 91 1012.9
20260502015047 42 121 0.0 0.0 0.00 0.06 0.06 91 1012.8
20260502014537 42 121 0.0 0.0 0.00 0.06 0.06 91 1012.7
20260502014039 42 121 0.0 0.0 0.00 0.06 0.06 91 1012.7
20260502013603 42 121 0.0 0.0 0.00 0.06 0.06 91 1012.7
20260502012038 42 121 0.0 0.0 0.00 0.06 0.06 91 1012.5
20260502011041 42 121 0.0 0.0 0.00 0.06 0.06 91 1012.3
20260502010546 42 121 0.0 0.0 0.00 0.06 0.06 91 1012.2
20260502005626 42 121 0.0 0.0 0.00 0.06 0.06 91 1012.2
20260502005122 42 121 0.0 0.0 0.00 0.06 0.06 91 1012.2
20260502004528 42 121 0.0 0.0 0.00 0.06 0.06 91 1012.1
20260502004052 42 121 0.0 0.0 0.00 0.06 0.06 91 1012.1
20260502003554 42 121 0.0 4.0 0.00 0.06 0.06 91 1012.1
20260502003049 42 121 2.0 4.0 0.00 0.06 0.06 91 1011.9
20260502002045 42 112 4.0 5.0 0.00 0.06 0.06 90 1011.7
20260502001556 42 122 3.0 4.0 0.00 0.06 0.06 90 1011.8
20260502001026 42 34 2.0 3.0 0.00 0.06 0.06 90 1011.8
20260502000658 42 19 0.0 0.0 0.00 0.06 0.06 90 1011.8
20260502000627 42 19 0.0 0.0 0.00 0.06 0.06 90 1011.8
20260502000135 42 19 0.0 0.0 0.00 0.06 0.06 90 1011.8
20260501235550 42 351 0.0 2.0 0.01 0.06 0.06 90 1011.8
20260501235140 42 351 0.0 2.0 0.01 0.06 0.06 90 1011.8
20260501234041 42 355 0.0 3.0 0.01 0.06 0.06 90 1011.7
20260501233630 42 351 2.0 3.0 0.01 0.06 0.06 90 1011.7
20260501233034 42 344 0.0 2.0 0.01 0.06 0.06 90 1011.8
20260501232556 42 344 0.0 3.0 0.01 0.06 0.06 89 1011.8
20260501232052 42 344 2.0 3.0 0.02 0.06 0.06 89 1011.7
20260501231548 43 344 2.0 4.0 0.02 0.06 0.06 89 1011.7
20260501230535 43 341 4.0 5.0 0.02 0.06 0.06 89 1011.7
20260501230045 43 342 3.0 5.0 0.01 0.05 0.05 89 1011.7
20260501224552 43 331 2.0 5.0 0.01 0.05 0.05 88 1011.6
20260501224038 43 335 2.0 5.0 0.01 0.05 0.05 88 1011.7
20260501223542 43 331 3.0 5.0 0.02 0.05 0.05 88 1011.6
20260501223056 43 330 3.0 6.0 0.02 0.05 0.05 87 1011.6
20260501222542 43 327 3.0 5.0 0.02 0.05 0.05 87 1011.7
20260501222038 43 321 2.0 5.0 0.01 0.04 0.04 87 1011.7
20260501221553 43 332 3.0 7.0 0.01 0.04 0.04 87 1011.6
20260501221114 43 336 4.0 7.0 0.01 0.04 0.04 86 1011.7
20260501220538 43 335 4.0 5.0 0.02 0.04 0.04 86 1011.8